Weather History for Bermuda, Bermuda

Change the Weather History Date:

Sunday, September 9, 2012

  Actual Average Record
Temperature  
Mean Temperature 78 °F -  
Max Temperature 82 °F 80 °F - ()
Min Temperature 75 °F 73 °F - ()
Cooling Degree Days 14    
Growing Degree Days 28 (Base 50)    
Moisture  
Dew Point 75 °F    
Average Humidity 86    
Maximum Humidity 94    
Minimum Humidity 76    
Precipitation  
Precipitation 2.95 in - - ()
Sea Level Pressure  
Sea Level Pressure 29.67 in    
Wind  
Wind Speed 23 mph ()    
Max Wind Speed 39 mph    
Max Gust Speed 54 mph    
Visibility 4.6 miles    
Events Rain    
T = Trace of Precipitation, MM = Missing Value Source: Averaged Metar Reports

Daily Weather History Graph

Daily Weather History Graph

Search for Another Location

Airport:

Trip Planner

Search our weather history database for the weather conditions in past years. The results will help you decide how hot, cold, wet, or windy it might be!

Date:

Astronomy

Sep. 09, 2012 Rise Set
Actual Time 6:59 AM ADT 7:32 PM ADT
Civil Twilight 6:34 AM ADT 7:56 PM ADT
Nautical Twilight 6:05 AM ADT 8:25 PM ADT
Astronomical Twilight 5:35 AM ADT 8:55 PM ADT
Moon 12:39 AM ADT (9/9) 2:59 PM ADT (9/9)
Length of Visible Light 13h 22m
Length of Day
12h 33m
Last Quarter, 40% of the Moon is Illuminated
Sep 9
Last Quarter
Sep 15
New
Sep 22
First Quarter
Sep 30
Full
Oct 8
Last Quarter

Hourly Weather History & Observations

Time (ADT) Temp. Heat Index Dew Point Humidity Pressure Visibility Wind Dir Wind Speed Gust Speed Precip Events Conditions
12:00 AM 82 °F - 76 °F 78% 29.80 in 9 mi NE 16.1 mph - - Rain Light Rain
12:55 AM 82.4 °F 89.5 °F 75.2 °F 79% 29.80 in 6.2 mi NE 19.6 mph - N/A   Overcast
1:03 AM 82.4 °F 89.5 °F 75.2 °F 79% 29.77 in 6.2 mi NE 18.4 mph - N/A   Overcast
1:46 AM 82.4 °F 90.9 °F 77.0 °F 84% 29.77 in 3.7 mi NNE 17.3 mph - N/A Rain Rain Showers
1:55 AM 82.4 °F 90.9 °F 77.0 °F 84% 29.77 in 5.0 mi NNE 18.4 mph - N/A Rain Light Rain Showers
2:09 AM 80.6 °F 87.1 °F 77.0 °F 89% 29.74 in 3.7 mi NNE 17.3 mph - N/A Rain Rain Showers
2:17 AM 80.6 °F 87.1 °F 77.0 °F 89% 29.74 in 5.6 mi NNE 17.3 mph - N/A Rain Light Rain Showers
2:55 AM 80.6 °F 86.2 °F 75.2 °F 84% 29.74 in 6.2 mi NNE 20.7 mph - N/A Rain Light Rain Showers
3:00 AM 81 °F - 75 °F 78% 29.75 in 9 mi NNE 20.7 mph - - Rain Light Rain Showers
3:55 AM 80.6 °F 86.2 °F 75.2 °F 84% 29.71 in 6.2 mi NNE 21.9 mph - N/A   Overcast
4:55 AM 80.6 °F 87.1 °F 77.0 °F 89% 29.68 in 6.2 mi North 23.0 mph - N/A Rain Light Rain Showers
5:09 AM 82.4 °F 90.9 °F 77.0 °F 84% 29.68 in 3.7 mi North 24.2 mph - N/A Rain Rain Showers
5:42 AM 80.6 °F 87.1 °F 77.0 °F 89% 29.68 in 5.0 mi North 24.2 mph - N/A Rain Light Rain Showers
5:55 AM 80.6 °F 87.1 °F 77.0 °F 89% 29.68 in - North 26.5 mph - N/A Rain Rain Showers
6:00 AM 81 °F - 76 °F 82% 29.70 in 3 mi North 26.5 mph - - Rain Heavy Rain Showers
6:07 AM 78.8 °F - 75.2 °F 89% 29.68 in 1.6 mi North 27.6 mph 43.7 mph N/A Rain Heavy Rain Showers
6:21 AM 77.0 °F - 73.4 °F 89% 29.68 in 3.7 mi NNE 27.6 mph 41.4 mph N/A Rain Light Rain Showers
6:32 AM 78.8 °F - 75.2 °F 89% 29.68 in 5.6 mi NNE 21.9 mph - N/A Rain Rain Showers
6:55 AM 78.8 °F - 75.2 °F 89% 29.68 in 5.0 mi NNE 18.4 mph - N/A Rain Light Rain Showers
7:43 AM 78.8 °F - 73.4 °F 83% 29.68 in 2.5 mi North 24.2 mph 35.7 mph N/A Rain Rain Showers
7:55 AM 78.8 °F - 73.4 °F 83% 29.68 in 1.5 mi North 25.3 mph - N/A Rain Heavy Rain Showers
8:11 AM 78.8 °F - 75.2 °F 89% 29.65 in 3.7 mi North 24.2 mph 36.8 mph N/A Rain Light Rain Showers
8:55 AM 80.6 °F 87.1 °F 77.0 °F 89% 29.65 in 5.6 mi NNW 25.3 mph 43.7 mph N/A Rain Light Rain Showers
9:00 AM 81 °F - 77 °F 84% 29.66 in 6 mi NNW 27.6 mph - - Rain Light Rain Showers
9:26 AM 78.8 °F - 75.2 °F 89% 29.65 in 5.0 mi NNW 27.6 mph 39.1 mph N/A Rain Light Rain Showers
9:55 AM 80.6 °F 87.1 °F 77.0 °F 89% 29.65 in 2.5 mi NNW 28.8 mph 40.3 mph N/A Rain Rain Showers
10:20 AM 78.8 °F - 75.2 °F 89% 29.65 in 1.0 mi NNW 27.6 mph 47.2 mph N/A Rain Heavy Rain Showers
10:55 AM 77.0 °F - 75.2 °F 94% 29.65 in 1.5 mi NNW 27.6 mph 52.9 mph N/A Rain Rain Showers
11:55 AM 77.0 °F - 75.2 °F 94% 29.62 in 2.5 mi NNW 31.1 mph 46.0 mph N/A Rain Rain Showers
12:00 PM 77 °F - 75 °F 91% 29.65 in 2 mi NNW 32.2 mph - - Rain Heavy Rain Showers
12:23 PM 77.0 °F - 75.2 °F 94% 29.65 in 1.0 mi NW 33.4 mph 54.1 mph N/A Rain Heavy Rain Showers
12:31 PM 77.0 °F - 75.2 °F 94% 29.65 in - NW 39.1 mph 54.1 mph N/A Rain Heavy Rain Showers
12:45 PM 77.0 °F - 75.2 °F 94% 29.62 in 1.5 mi NW 36.8 mph 51.8 mph N/A Rain Rain Showers
12:55 PM 77.0 °F - 75.2 °F 94% 29.65 in 2.5 mi NW 34.5 mph 51.8 mph N/A Rain Rain Showers
1:03 PM 75.2 °F - 73.4 °F 94% 29.65 in - NNW 38.0 mph 54.1 mph N/A Rain Heavy Rain Showers
1:19 PM 75.2 °F - 73.4 °F 94% 29.65 in 1.0 mi NNW 33.4 mph 44.9 mph N/A Rain Heavy Rain Showers
1:55 PM 75.2 °F - 73.4 °F 94% 29.62 in 1.0 mi NNW 36.8 mph 48.3 mph N/A Rain Heavy Rain Showers
2:16 PM 77.0 °F - 75.2 °F 94% 29.59 in 3.7 mi NNW 32.2 mph 52.9 mph N/A Rain Light Rain Showers
2:55 PM 80.6 °F 86.2 °F 75.2 °F 84% 29.59 in 3.7 mi North 31.1 mph 44.9 mph N/A Rain Light Rain Showers
3:00 PM 80 °F - 76 °F 82% 29.60 in 4 mi NNW 29.9 mph - - Rain Light Rain Showers
3:55 PM 80.6 °F 86.2 °F 75.2 °F 84% 29.59 in 5.0 mi NW 31.1 mph 47.2 mph N/A Rain Light Rain
4:55 PM 80.6 °F 86.2 °F 75.2 °F 84% 29.59 in 5.6 mi WNW 31.1 mph 47.2 mph N/A Rain Light Rain
5:55 PM 82.4 °F 89.5 °F 75.2 °F 79% 29.59 in 6.2 mi WNW 34.5 mph 46.0 mph N/A   Overcast
6:00 PM 82 °F - 76 °F 77% 29.62 in 9 mi WNW 31.1 mph - - Rain Light Rain
6:26 PM 82.4 °F 90.9 °F 77.0 °F 84% 29.62 in 6.2 mi WNW 31.1 mph 43.7 mph N/A   Overcast
6:55 PM 82.4 °F 89.5 °F 75.2 °F 79% 29.62 in 6.2 mi WNW 34.5 mph 46.0 mph N/A   Overcast
7:55 PM 82.4 °F 89.5 °F 75.2 °F 79% 29.65 in 6.2 mi WNW 33.4 mph 47.2 mph N/A   Overcast
8:55 PM 82.4 °F 89.5 °F 75.2 °F 79% 29.68 in 6.2 mi WNW 31.1 mph 42.6 mph N/A   Mostly Cloudy
9:00 PM 82 °F - 76 °F 76% 29.68 in 9 mi WNW 33.4 mph - -   Partly Cloudy
9:55 PM 82.4 °F 89.5 °F 75.2 °F 79% 29.68 in 6.2 mi WNW 28.8 mph 41.4 mph N/A   Mostly Cloudy
10:55 PM 82.4 °F 89.5 °F 75.2 °F 79% 29.71 in 6.2 mi WNW 31.1 mph 43.7 mph N/A   Mostly Cloudy
11:55 PM 82.4 °F 89.5 °F 75.2 °F 79% 29.71 in 6.2 mi West 32.2 mph - N/A   Mostly Cloudy